Location: Howard City Library
(37.4684°N, 96.2639°W)
Time: 08:09:05
(UTC+00:00)

CZ-4 R/B - Pass Details

Date: 18 February 2020
Orbit: 531 x 599 km, 97.8° (Epoch: 30 March)

Event Time Altitude Azimuth Distance (km) Brightness Sun altitude
Rises 01:32:51 0° 192° (SSW) 2,827 5.1 -17.8°
Reaches altitude 10° 01:35:15 10° 205° (SSW) 1,932 4.4 -18.3°
Maximum altitude 01:38:52 27° 264° (W) 1,149 3.7 -19.0°
Drops below altitude 10° 01:42:29 10° 323° (NW) 1,940 4.6 -19.7°
Sets 01:44:55 0° 335° (NNW) 2,841 5.3 -20.2°
